Weather History for KPGA - July, 2013

Change the Weather History Date:

Wednesday, July 24, 2013

  Actual Average Record
Temperature  
Mean Temperature 87 °F -  
Max Temperature 99 °F 94 °F 105 °F (2006)
Min Temperature 75 °F 68 °F 37 °F (1996)
Cooling Degree Days 22    
Growing Degree Days 37 (Base 50)    
Moisture  
Dew Point 52 °F    
Average Humidity 31    
Maximum Humidity 47    
Minimum Humidity 8    
Precipitation  
Precipitation 0.04 in - - ()
Sea Level Pressure  
Sea Level Pressure 29.84 in    
Wind  
Wind Speed 3 mph (SW)    
Max Wind Speed 15 mph    
Max Gust Speed 28 mph    
Visibility 10 miles    
Events Rain , Thunderstorm    
Averages and records for this station are not official NWS values.
T = Trace of Precipitation, MM = Missing Value Source: NWS Daily Summary

Daily Weather History Graph

Daily Weather History Graph

Search for Another Location

Airport or City:

Trip Planner

Search our weather history database for the weather conditions in past years. The results will help you decide how hot, cold, wet, or windy it might be!

Date:

Astronomy

Jul. 24, 2013 Rise Set
Actual Time 5:25 AM MST 7:39 PM MST
Civil Twilight 4:55 AM MST 8:08 PM MST
Nautical Twilight 4:19 AM MST 8:44 PM MST
Astronomical Twilight 3:40 AM MST 9:23 PM MST
Moon 8:53 PM MST (7/24) 7:44 AM MST (7/24)
Length of Visible Light 15h 12m
Length of Day
14h 14m
Waning Gibbous, 94% of the Moon is Illuminated
Jul 24
Waning Gibbous
Jul 29
Last Quarter
Aug 6
New
Aug 14
First Quarter
Aug 20
Full

Hourly Weather History & Observations

Time (MST) Temp. Heat Index Dew Point Humidity Pressure Visibility Wind Dir Wind Speed Gust Speed Precip Events Conditions
12:53 AM 82.9 °F 81.9 °F 54.0 °F 37% 29.84 in 10.0 mi West 3.5 mph - 0.00 in   Clear
1:53 AM 81.0 °F 80.5 °F 54.0 °F 39% 29.85 in 10.0 mi Calm Calm - N/A   Mostly Cloudy
2:53 AM 79.0 °F - 55.0 °F 44% 29.83 in 10.0 mi Calm Calm - N/A   Clear
3:53 AM 77.0 °F - 55.0 °F 47% 29.84 in 10.0 mi Calm Calm - N/A   Scattered Clouds
4:53 AM 78.1 °F - 54.0 °F 43% 29.84 in 10.0 mi Calm Calm - N/A   Mostly Cloudy
5:53 AM 75.9 °F - 54.0 °F 46% 29.85 in 10.0 mi South 3.5 mph - N/A   Clear
6:53 AM 79.0 °F - 55.0 °F 44% 29.86 in 10.0 mi Calm Calm - N/A   Clear
7:53 AM 82.9 °F 81.9 °F 54.0 °F 37% 29.86 in 10.0 mi WNW 3.5 mph - N/A   Clear
8:53 AM 84.0 °F - 52.0 °F 33% 29.87 in 10.0 mi Variable 3.5 mph - N/A   Clear
9:53 AM 88.0 °F - 52.0 °F 29% 29.86 in 10.0 mi Calm Calm - N/A   Clear
10:53 AM 91.0 °F - 51.1 °F 25% 29.85 in 10.0 mi North 6.9 mph - N/A   Clear
11:53 AM 93.9 °F - 50.0 °F 22% 29.83 in 10.0 mi Calm Calm - N/A   Clear
12:53 PM 96.1 °F - 50.0 °F 21% 29.79 in 10.0 mi Variable 5.8 mph - N/A   Clear
1:43 PM 93.2 °F - 50.0 °F 23% 30.01 in 10.0 mi North 8.1 mph - N/A Thunderstorm Clear
1:53 PM 93.9 °F - 48.9 °F 21% 29.78 in 10.0 mi ENE 4.6 mph - N/A   Clear
2:53 PM 93.0 °F - 50.0 °F 23% 29.77 in 10.0 mi Calm Calm - 0.00 in   Clear
3:53 PM 97.0 °F - 51.1 °F 21% 29.74 in 10.0 mi WNW 5.8 mph - N/A   Clear
4:53 PM 99.0 °F - 44.1 °F 15% 29.72 in 10.0 mi Variable 3.5 mph - N/A   Clear
5:45 PM 96.8 °F - 44.6 °F 17% 29.94 in 10.0 mi South 6.9 mph - N/A Thunderstorm Clear
5:53 PM 97.0 °F - 43.0 °F 16% 29.71 in 10.0 mi SE 3.5 mph - N/A Thunderstorm Clear
5:57 PM 96.8 °F - 42.8 °F 16% 29.94 in 10.0 mi ESE 4.6 mph - N/A Thunderstorm Clear
6:53 PM 90.0 °F - 52.0 °F 27% 29.75 in 2.0 mi WNW 10.4 mph 23.0 mph N/A Thunderstorm Unknown
7:06 PM 84.2 °F 83.5 °F 57.2 °F 40% 29.99 in 5.0 mi WNW 15.0 mph 26.5 mph 0.00 in Rain , Thunderstorm Thunderstorms and Rain
7:30 PM 82.4 °F 82.0 °F 57.2 °F 42% 29.98 in 9.0 mi East 9.2 mph 27.6 mph 0.04 in Rain , Thunderstorm Light Rain
7:35 PM 86.0 °F 84.2 °F 53.6 °F 33% 29.98 in 10.0 mi SE 8.1 mph - 0.04 in Rain , Thunderstorm Light Thunderstorms and Rain
7:53 PM 86.0 °F 84.7 °F 55.9 °F 36% 29.76 in 10.0 mi SSE 6.9 mph - 0.04 in Thunderstorm Thunderstorm
8:02 PM 87.8 °F 86.1 °F 55.4 °F 33% 29.98 in 10.0 mi South 5.8 mph - N/A   Clear
8:53 PM 82.9 °F 82.1 °F 55.9 °F 39% 29.79 in 10.0 mi WSW 4.6 mph - N/A   Clear
9:53 PM 82.9 °F 82.1 °F 55.9 °F 39% 29.81 in 10.0 mi WNW 5.8 mph - N/A   Clear
10:53 PM 81.0 °F 81.0 °F 57.0 °F 44% 29.81 in 10.0 mi West 4.6 mph - N/A   Clear
11:53 PM 81.0 °F 80.7 °F 55.0 °F 41% 29.80 in 10.0 mi WSW 3.5 mph - N/A   Clear